Overview Statistics Trail Chart Weather Telemetry Raw packets
 

This is the latest recevied weather packets stored in our database for station/object s59zo-6. If no packets are shown the sender has not sent any weather packets the latest 10 day(s).

<< 69 70 71 72 73 74 75 >>
Time Temp. Humidity Pressure Rain* Wind** Luminosity Snow
1788196503 30° C 43% 1013 hPa 0 mm - - -
1788196203 30.56° C 42% 1013 hPa 0 mm - - -
1788195903 31.67° C 43% 1013 hPa 0 mm - - -
1788195603 32.78° C 40% 1012.9 hPa 0 mm - - -
1788195321 33.33° C 39% 1013 hPa 0 mm - - -
1788195003 33.33° C 35% 1012.9 hPa 0 mm - - -
1788194703 33.89° C 31% 1013 hPa 0 mm - - -
1788194403 33.89° C 30% 1013.1 hPa 0 mm - - -
1788194103 34.44° C 30% 1012.9 hPa 0 mm - - -
1788193804 34.44° C 30% 1013.1 hPa 0 mm - - -
1788193503 34.44° C 30% 1013.1 hPa 0 mm - - -
1788107104 31.11° C 39% 1017.7 hPa 0 mm - - -
1788106805 31.11° C 40% 1017.6 hPa 0 mm - - -
1788106505 31.11° C 40% 1017.7 hPa 0 mm - - -
1788106205 31.11° C 38% 1017.7 hPa 0 mm - - -
1788105904 31.67° C 37% 1017.8 hPa 0 mm - - -
1788105604 31.67° C 37% 1017.8 hPa 0 mm - - -
1788105304 31.67° C 36% 1017.9 hPa 0 mm - - -
1788105005 31.67° C 37% 1017.8 hPa 0 mm - - -
1788104705 31.67° C 36% 1017.8 hPa 0 mm - - -
1788104412 31.67° C 36% 1017.9 hPa 0 mm - - -
1788104105 31.67° C 36% 1017.9 hPa 0 mm - - -
1788103805 31.11° C 36% 1017.9 hPa 0 mm - - -
1788103504 31.11° C 35% 1017.9 hPa 0 mm - - -
1788103205 31.67° C 35% 1017.8 hPa 0 mm - - -

* Rain latest hour (hover to see other rain measurements)
** Current wind speed in m/s (hover to see current wind gust speed)